[[{"header":{"parameterUnit":"m.s-1","parameterCategory":1,"la1":30.2991,"la2":30.254,"lo1":-89.0895,"lo2":-89.0444,"dy":0.0017,"dx":0.0017,"nx":28,"ny":28,"refTime":"2023-08-11T21:00:00:Z","depth":0,"parameterNumber":2,"parameterNumberName":"U-component_of_WINDS"},"data":[0,0,0,0,0,0,0,0,0,0,0,0,0,0,0,0,0,0,0,0,0,0,0,0,0,0,0,0,0,0,0,0,0,0,0,0,0,0,0,0,0,0,0,0,0,0,0,0,0,0,0,0,0,0,0,0,0,0,4.3535,4.3535,0,4.3592,4.3593,4.3593,4.3507,4.3504,4.3501,4.3498,4.3557,4.3561,4.3565,0,0,0,0,0,0,0,0,0,0,0,0,0,4.3349,4.3353,4.3535,4.3535,4.3536,4.3592,4.3593,4.3593,4.3508,4.3504,4.35,4.3497,4.3555,4.356,4.3565,0,0,0,0,0,0,0,0,0,0,0,0,0,4.342,4.3354,4.3535,4.35,4.3498,4.3592,4.3593,4.3594,4.3509,4.3504,4.3499,4.3495,4.3553,4.356,4.3566,4.3696,0,0,4.3586,4.3589,0,0,0,0,0,0,0,0,4.3416,4.3427,4.3505,4.3503,4.35,4.3538,4.3548,4.3628,4.351,4.3504,4.3498,4.3493,4.3554,4.356,4.3581,4.3699,4.3702,4.3587,4.3591,4.3593,4.3595,0,0,0,0,0,0,0,4.3411,4.3424,4.3557,4.3506,4.3503,4.3481,4.3486,4.3563,4.3554,4.3505,4.3498,4.3506,4.3552,4.3575,4.3581,4.3702,4.3586,4.3592,4.3596,4.3599,4.3926,4.3931,0,0,0,0,0,0,4.3411,4.3421,4.3555,4.3559,4.3446,4.3488,4.3494,4.353,4.3553,4.3552,4.351,4.3502,4.3566,4.3574,4.3583,4.3734,4.3593,4.3599,4.3603,4.3921,4.3927,4.3932,0,0,0,0,0,0,4.3407,4.3424,4.3553,4.3488,4.3503,4.3496,4.3538,4.3534,4.3556,4.3557,4.3555,4.3535,4.3562,4.3574,4.3668,4.3734,4.3602,4.3608,4.3916,4.3923,4.393,4.4038,0,0,0,0,0,0,4.3402,4.3423,4.3473,4.349,4.3507,4.3638,4.3542,4.3538,4.3568,4.3558,4.358,4.3579,4.356,4.3659,4.3674,4.3741,4.3613,4.391,4.3919,4.3927,4.4028,4.4048,4.4065,0,0,0,0,0,4.3396,4.3502,4.3476,4.3493,4.357,4.3642,4.3652,4.3627,4.3574,4.3623,4.3623,4.3578,4.3725,4.3669,4.3686,4.3756,4.3905,4.3916,4.3927,4.402,4.4044,4.4064,0,0,0,0,0,0,4.3494,4.3504,4.3475,4.359,4.3616,4.3628,4.3689,4.3654,4.3696,4.3685,4.3653,4.3658,4.3758,4.3767,4.3704,4.3881,4.3806,4.3821,4.3871,4.3894,4.3912,4.3906,4.3619,0,0,0,0,0,4.3529,4.3588,4.3593,4.3694,4.3708,4.3697,4.3728,4.3707,4.3732,4.3742,4.3749,4.3775,4.3826,4.3861,4.3909,4.403,4.4031,4.4086,4.4104,4.4119,4.4131,4.4192,4.4215,4.3968,4.3968,4.3967,0,0,4.3602,4.3615,4.3654,4.3714,4.3731,4.3791,4.3707,4.3775,4.3818,4.3753,4.3841,4.3847,4.3873,4.398,4.4028,4.399,4.42,4.4133,4.4145,4.4149,4.4205,4.4229,4.425,4.3975,4.3974,4.3973,0,0,4.3765,4.3782,4.3866,4.3885,4.3912,4.3903,4.3923,4.394,4.3941,4.4029,4.398,4.4031,4.4122,4.4141,4.4163,4.4331,4.429,4.4347,4.4441,4.4501,4.452,4.4537,4.4594,4.4615,4.436,4.436,4.4361,0,4.3852,4.3941,4.3914,4.3984,4.401,4.3953,4.4037,4.4056,4.4098,4.4117,4.4075,4.4184,4.4199,4.4307,4.4348,4.4369,4.4389,4.4344,4.452,4.4537,4.4552,4.4605,4.4627,4.4367,4.4366,4.4366,4.4365,0,4.4044,4.4107,4.4172,4.4211,4.4246,4.4323,4.4305,4.4343,4.4319,4.4314,4.4402,4.4417,4.4465,4.449,4.4468,4.4595,4.457,4.4525,4.4449,4.4583,4.4632,4.4652,4.4376,4.4374,4.4372,4.437,0,0,4.4271,4.4293,4.4317,4.4333,4.4357,4.4404,4.4478,4.4524,4.4555,4.4586,4.4644,4.4721,4.4678,4.4703,4.4682,4.4735,4.4862,4.4682,4.4682,4.4712,4.4999,4.5031,4.5055,4.4836,4.484,4.4843,4.4995,0,4.443,4.4556,4.4532,4.4654,4.4709,4.4655,4.4718,4.474,4.4737,4.4783,4.478,4.4833,4.4774,4.4788,4.4838,4.4836,4.4919,4.4825,4.4888,4.4891,4.488,4.5081,4.5116,4.5259,4.5015,4.5018,4.5021,0,4.4633,4.4669,4.4796,4.4809,4.4831,4.4888,4.4927,4.4972,4.4994,4.4988,4.5015,4.4984,4.5054,4.4979,4.5075,4.5012,4.5036,4.5039,4.5044,4.5046,4.4962,4.5086,4.5305,4.5325,4.5052,4.5049,4.5047,0,4.478,4.4861,4.4946,4.4962,4.498,4.5021,4.503,4.5048,4.5076,4.511,4.5128,4.517,4.5193,4.5226,4.5206,4.5153,4.5303,4.5227,4.5298,4.5299,4.533,4.5328,4.5552,4.5352,4.5351,4.5351,4.5351,0,4.4958,4.5037,4.5012,4.5065,4.5151,4.5123,4.5208,4.5211,4.5227,4.5278,4.5235,4.5283,4.5255,4.5301,4.5286,4.5365,4.5377,4.5372,4.5366,4.5374,4.5374,4.5388,4.5376,4.5357,4.5355,4.5354,4.5353,0,4.5137,4.5123,4.5212,4.5221,4.5225,4.5288,4.5295,4.5343,4.5337,4.5401,4.5415,4.5405,4.5456,4.544,4.5496,4.5486,4.5585,4.5569,4.5577,4.5572,4.5642,4.5634,4.588,4.591,4.5694,4.5696,4.5697,0,4.525,4.5309,4.5324,4.5354,4.5366,4.5417,4.5445,4.5419,4.545,4.5478,4.5522,4.5569,4.5605,4.569,4.5687,4.5729,4.5711,4.5794,4.5717,4.5721,4.5707,4.5703,4.5707,4.5808,4.5811,4.5813,4.5815,0,4.5451,4.544,4.5483,4.5522,4.5556,4.5586,4.5612,4.564,4.5615,4.5652,4.5703,4.5731,4.5787,4.5834,4.5871,4.5879,4.5842,4.5839,4.5857,4.5864,4.5865,4.5862,4.5616,4.5833,4.5831,4.583,4.5829,4.5828,4.5597,4.5646,4.5663,4.571,4.5727,4.5751,4.5796,4.5794,4.5837,4.5879,4.5862,4.592,4.5938,4.5984,4.5998,4.6042,4.601,4.6037,4.6043,4.6049,4.6056,4.5861,4.6049,4.6049,4.6048,4.6048,4.6047,0,4.5793,4.5801,4.5845,4.5881,4.5918,4.588,4.5906,4.5939,4.5991,4.6011,4.6047,4.6104,4.6149,4.6149,4.619,4.6225,4.6209,4.6236,4.6232,4.6234,4.6085,4.6063,4.6249,4.6249,4.6249,4.6248,4.6248,4.6248,4.5899,4.5977,4.5969,4.6055,4.6062,4.6118,4.6136,4.6158,4.6173,4.6239,4.6275,4.6275,4.6286,4.6327,4.6365,4.6364,4.6379,4.6413,4.6405,4.6265,4.6245,4.6226,4.6205,4.6417,4.6417,4.6549,4.6551,4.6552]},{"header":{"parameterUnit":"m.s-1","parameterCategory":1,"la1":30.2991,"la2":30.254,"lo1":-89.0895,"lo2":-89.0444,"dy":0.0017,"dx":0.0017,"nx":28,"ny":28,"refTime":"2023-08-11T21:00:00:Z","depth":0,"parameterNumber":3,"parameterNumberName":"V-component_of_WINDS"},"data":[0,0,0,0,0,0,0,0,0,0,0,0,0,0,0,0,0,0,0,0,0,0,0,0,0,0,0,0,0,0,0,0,0,0,0,0,0,0,0,0,0,0,0,0,0,0,0,0,0,0,0,0,0,0,0,0,0,0,3.9547,3.9548,0,3.9606,3.9606,3.9607,3.9577,3.9576,3.9574,3.9573,3.9629,3.9631,3.9634,0,0,0,0,0,0,0,0,0,0,0,0,0,3.9404,3.9407,3.9547,3.9548,3.9548,3.9606,3.9606,3.9607,3.9578,3.9576,3.9574,3.9572,3.9628,3.9631,3.9634,0,0,0,0,0,0,0,0,0,0,0,0,0,3.9464,3.9407,3.9547,3.9541,3.9541,3.9605,3.9606,3.9607,3.9578,3.9576,3.9574,3.9571,3.9626,3.9631,3.9635,3.9708,0,0,3.9648,3.965,0,0,0,0,0,0,0,0,3.9461,3.947,3.9541,3.9541,3.9541,3.9582,3.9576,3.9641,3.9579,3.9564,3.9573,3.957,3.9615,3.962,3.9636,3.971,3.9712,3.9649,3.9651,3.9653,3.9654,0,0,0,0,0,0,0,3.9457,3.9467,3.957,3.9542,3.9542,3.9533,3.9539,3.9588,3.9601,3.9565,3.9563,3.9571,3.9614,3.9632,3.9637,3.9713,3.9649,3.9652,3.9655,3.9657,3.9848,3.985,0,0,0,0,0,0,3.9454,3.9464,3.9568,3.9572,3.9495,3.9538,3.9545,3.9571,3.9601,3.9603,3.9572,3.9569,3.9625,3.9632,3.9639,3.9724,3.9653,3.9657,3.966,3.9845,3.9848,3.9851,0,0,0,0,0,0,3.9451,3.9463,3.9566,3.9517,3.953,3.9543,3.9573,3.9574,3.9591,3.9606,3.9608,3.9588,3.9624,3.9632,3.969,3.9725,3.9659,3.9663,3.9842,3.9846,3.985,3.9896,0,0,0,0,0,0,3.9447,3.9462,3.9492,3.9518,3.9532,3.9619,3.9575,3.9576,3.9599,3.9595,3.9621,3.9624,3.9623,3.9684,3.9695,3.973,3.9666,3.9839,3.9844,3.9848,3.9892,3.9901,3.9909,0,0,0,0,0,3.9442,3.9502,3.9493,3.9506,3.9569,3.9621,3.9629,3.9628,3.9602,3.963,3.964,3.9623,3.972,3.969,3.9702,3.9739,3.9837,3.9843,3.9848,3.9888,3.9899,3.9909,0,0,0,0,0,0,3.9478,3.9505,3.9496,3.9567,3.9592,3.9616,3.9651,3.964,3.9672,3.9666,3.9662,3.9668,3.9728,3.974,3.9706,3.981,3.9774,3.9782,3.98,3.9812,3.982,3.9816,3.967,0,0,0,0,0,3.9494,3.9535,3.9556,3.9617,3.963,3.9639,3.9661,3.9658,3.9683,3.9693,3.9707,3.973,3.9766,3.9789,3.9823,3.9893,3.9897,3.9924,3.9933,3.994,3.9947,3.9983,3.9995,3.9869,3.9869,3.9869,0,0,3.9528,3.9548,3.9574,3.9624,3.9643,3.9684,3.9648,3.9693,3.9722,3.9699,3.9755,3.9766,3.9791,3.9855,3.9884,3.9867,3.9983,3.9948,3.9953,3.9956,3.999,4.0002,4.0012,3.9873,3.9872,3.9872,0,0,3.961,3.9631,3.9682,3.9702,3.9732,3.9737,3.9749,3.9775,3.9781,3.9837,3.9821,3.9855,3.9917,3.9935,3.9953,4.0041,4.0025,4.0052,4.0097,4.0132,4.0142,4.0151,4.0181,4.0192,4.0059,4.0059,4.0059,0,3.9648,3.9711,3.971,3.9756,3.9778,3.976,3.9811,3.983,3.9868,3.9883,3.9863,3.9939,3.9956,4.0023,4.0044,4.0059,4.0072,4.0048,4.0141,4.015,4.0158,4.0186,4.0198,4.0062,4.0061,4.0061,4.0061,0,3.9755,3.9798,3.9836,3.9875,3.99,3.9949,3.9953,3.9979,3.9974,3.9981,4.0036,4.0055,4.0092,4.0108,4.0102,4.0174,4.0162,4.0142,4.0106,4.0173,4.0199,4.021,4.0066,4.0065,4.0064,4.0063,0,0,3.9861,3.9899,3.9913,3.9929,3.996,3.9992,4.0039,4.0076,4.0097,4.0124,4.0161,4.0214,4.0195,4.0215,4.0212,4.0243,4.0309,4.0219,4.0219,4.0233,4.0386,4.04,4.0413,4.0299,4.0301,4.0303,4.0383,0,3.9944,4.0028,4.0028,4.0104,4.0142,4.0126,4.0166,4.0188,4.0195,4.0227,4.0234,4.0271,4.0245,4.0256,4.0286,4.0295,4.0339,4.0289,4.0332,4.0333,4.0325,4.0427,4.0442,4.0517,4.0394,4.0396,4.0397,0,4.0053,4.0084,4.0164,4.0188,4.0204,4.0241,4.0273,4.0305,4.0329,4.0332,4.0354,4.0345,4.039,4.0354,4.0414,4.038,4.0397,4.0404,4.0407,4.041,4.0369,4.0431,4.0541,4.0552,4.0413,4.0412,4.0411,0,4.0121,4.0183,4.0238,4.0253,4.0283,4.0308,4.0321,4.0343,4.0365,4.0393,4.0406,4.0439,4.0457,4.0481,4.0481,4.0455,4.0542,4.0505,4.0544,4.0544,4.0562,4.0561,4.0675,4.0576,4.0575,4.0575,4.0575,0,4.0213,4.0262,4.0269,4.0303,4.0357,4.0356,4.0408,4.0419,4.0438,4.0472,4.0459,4.0491,4.0489,4.0521,4.0521,4.057,4.0578,4.058,4.0579,4.0581,4.0581,4.0592,4.0586,4.0578,4.0577,4.0577,4.0576,0,4.0297,4.0304,4.0363,4.0387,4.0393,4.0432,4.0451,4.0482,4.0488,4.0531,4.0541,4.055,4.0586,4.0589,4.0631,4.063,4.069,4.0684,4.0682,4.0681,4.0718,4.0714,4.0843,4.0859,4.075,4.0751,4.0752,0,4.0355,4.0393,4.042,4.0443,4.0458,4.0494,4.0517,4.0516,4.0539,4.0569,4.0596,4.0632,4.066,4.0719,4.0728,4.0759,4.0753,4.0796,4.0757,4.0757,4.0752,4.0749,4.0752,4.0803,4.0804,4.0805,4.0806,0,4.0457,4.0458,4.0492,4.0526,4.0553,4.058,4.0604,4.0623,4.0625,4.0652,4.069,4.0712,4.0755,4.0789,4.082,4.0831,4.0818,4.0818,4.0828,4.0829,4.0826,4.0827,4.0701,4.0815,4.0814,4.0813,4.0813,4.0812,4.0529,4.0561,4.0585,4.0622,4.064,4.0664,4.0694,4.0704,4.0736,4.0772,4.0769,4.0811,4.0831,4.0871,4.0885,4.0916,4.0901,4.0917,4.092,4.0924,4.0927,4.0823,4.0922,4.0922,4.0921,4.0921,4.0921,0,4.0628,4.0643,4.0677,4.0712,4.0741,4.0728,4.0754,4.0778,4.0816,4.0837,4.0865,4.0908,4.0941,4.0953,4.0985,4.1007,4.1002,4.1015,4.1013,4.1015,4.0939,4.0926,4.1019,4.1019,4.1019,4.1019,4.1019,4.1019,4.0683,4.0736,4.074,4.0801,4.0815,4.0857,4.0872,4.0893,4.091,4.0958,4.0987,4.0994,4.1011,4.1044,4.1073,4.1076,4.1087,4.1103,4.1103,4.1031,4.1021,4.1012,4.1,4.1106,4.1106,4.1176,4.1177,4.1177]}]]